This is the latest recevied weather packets stored in our database for station/object IW4ENL-7. If no packets are shown the sender has not sent any weather packets the latest 1 day(s).
| Time | Temp. | Humidity | Pressure | Rain* | Wind** | Luminosity | Snow |
|---|---|---|---|---|---|---|---|
| 1777992469 | 12.78° C | 60% | 961 hPa | - | 0.89 m/s, 329° | - | - |
| 1777992286 | 12.78° C | 60% | 961 hPa | - | 0.89 m/s, 352° | - | - |
| 1777992103 | 12.78° C | 60% | 961 hPa | - | 0.45 m/s, 6° | - | - |
| 1777991920 | 12.78° C | 61% | 961 hPa | - | 0.89 m/s, 19° | - | - |
| 1777991737 | 12.78° C | 61% | 961 hPa | - | 0.89 m/s, 298° | - | - |
| 1777991554 | 12.78° C | 61% | 961 hPa | - | 0.89 m/s, 356° | - | - |
| 1777991371 | 12.78° C | 61% | 961 hPa | - | 0.45 m/s, 320° | - | - |
| 1777991006 | 12.78° C | 61% | 961 hPa | - | 0.89 m/s, 356° | - | - |
| 1777990823 | 12.78° C | 61% | 961 hPa | - | 0.89 m/s, 320° | - | - |
| 1777990640 | 12.78° C | 61% | 961 hPa | - | 1.34 m/s, 353° | - | - |
| 1777990091 | 12.78° C | 62% | 961 hPa | - | 1.34 m/s, 355° | - | - |
| 1777989542 | 13.33° C | 61% | 961 hPa | - | 1.79 m/s, 31° | - | - |
| 1777989359 | 13.33° C | 61% | 961 hPa | - | 1.79 m/s, 50° | - | - |
| 1777988993 | 13.33° C | 61% | 961 hPa | - | 0.45 m/s, 40° | - | - |
| 1777988811 | 13.33° C | 62% | 961 hPa | - | 0.89 m/s, 36° | - | - |
| 1777988628 | 13.33° C | 62% | 961 hPa | - | 1.34 m/s, 22° | - | - |
| 1777988445 | 13.33° C | 61% | 961 hPa | - | 2.24 m/s, 45° | - | - |
| 1777988262 | 13.33° C | 62% | 961 hPa | - | 0.89 m/s, 49° | - | - |
| 1777988079 | 13.33° C | 62% | 961 hPa | - | 0.89 m/s, 49° | - | - |
| 1777987896 | 13.33° C | 62% | 961 hPa | - | 1.34 m/s, 45° | - | - |
| 1777987713 | 13.33° C | 62% | 961 hPa | - | 0.89 m/s, 45° | - | - |
| 1777987530 | 13.33° C | 63% | 961 hPa | - | 1.34 m/s, 28° | - | - |
| 1777987347 | 13.33° C | 63% | 961 hPa | - | 1.79 m/s, 31° | - | - |
| 1777986981 | 13.89° C | 62% | 961 hPa | - | 2.24 m/s, 28° | - | - |
| 1777986798 | 13.89° C | 62% | 961 hPa | - | 0.89 m/s, 343° | - | - |
* Rain since midnight (hover to see other rain measurements)
** Current wind speed in m/s (hover to see current wind gust speed)